Погода в Пинске

Погода в Пинске : погода сейчас, прогноз погоды и архив. Всё, что Вы хотите узнать о погоде в Пинске!

Хотите узнать прогноз погоды в Пинске? Тогда Вам сюда: Погода в Пинске

Поиск расширенной информации на нашем сайте:

Другие новости

Новости СМИ2

Главная страница сайта

Новости сайта

03.07.2017

Напоминаем, что на нашем специализированном сайте Метеоцентр.Азия вы можете получить высокодетализированные автоматические прогнозы погоды по пунктам России, СНГ и мира в авиационном формате (включающие направление и скорость ветра, видимость, явления погоды, количество и форму облачности, нижнюю и верхнюю границу облачности).


Погода в Пинске - сегодня

Время (UTC), дата Ветер
(°,м/с) 
Видим.   Явления Облачность Т
(°С)
Тd
(°С)
f(%) Тe
(°С)
Pmin
(гПа)
dP
(гПа)
Po
(мм)
O2
(г/м3)
Тmin Tmax R s Состояние
почвы
12 13.07.18 320 (СЗ) 10 км  {гроза, ливн. осадки}  9/6 1000 м средняя 
[Cu hum|Ac trans]
+22.7 +13.9 58 +30  1011  0.3  746  275      0.6     
15 13.07.18 310 (СЗ) 15000 м    8/3 1000 м средняя, верхняя 
[Cu hum|Ac trans|Ci fib]
+22.6 +12.5 53 +27  1010.4  -0.6  746  275      0.6     
18 13.07.18 320 (СЗ) 10 км    6/3 600 м верхняя 
[Sc|Ci fib]
+20.7 +12.5 59 +25  1010.3  -0.2  745  277    +23.7  0.6     
21 13.07.18 320 (СЗ) 10 км    6/0 средняя, верхняя 
[Ac trans|Ci fib]
+16.5 +13 80 +23  1010.8  0.2  746  281           
00 14.07.18 330 (СЗ) 10 км    6/0 средняя, верхняя 
[Ac trans|Ci fib]
+14.6 +12.6 88 +20  1010.4  -0.5  745  283           
03 14.07.18 330 (СЗ) 7000 м  дымка  9/0 средняя 
[Ac trans]
+13.4 +12.3 93 +19  1010.1  -0.4  745  284           
06 14.07.18 330 (СЗ) 6000 м  слаб. ливневой дождь  10/10 540 м кучево-дожд. 
[Cb calv]
+14.7 +13.5 93 +21  1010.1  0.1  745  282  +13.3    0.1     
09 14.07.18 130 (ЮВ) 10 км  {ливн. осадки}  8/3 1000 м средняя, верхняя 
[Cu hum|Ac trans|Ci fib]
+19.4 +15.1 76 +30  1009.5  -0.3  745  277         
12 14.07.18 330 (СЗ) 9000 м  гроза, ливневой дождь  10/10 450 м кучево-дожд. 
[Cb calv]
+17.3 +15.2 87 +27  1008.7  -0.9  744  279         
15 14.07.18 070 (В) 9000 м  слаб. ливневой дождь  9/4 600 м кучево-дожд., средняя, верхняя 
[Cb calv|Ac trans|Ci fib]
+21.1 +15.9 72 +32  1007.6  -0.8  743  275         
18 14.07.18 340 (С) 10 км  {гроза, ливн. осадки}  8/3 600 м средняя, верхняя 
[Sc diur, vesp|Ac trans|Ci fib]
+18.4 +15 81 +29  1007.9  0.1  744  278    +22.8     
21 14.07.18 350 (С) 7000 м  дымка  8/0 средняя 
[Ac trans]
+15.3 +14.7 96 +25  1008.3  0.2  744  281           
00 15.07.18 тихо ()   6000 м  дымка  8/0 верхняя 
[Ci fib]
+14.3 +13.8 97 +21  1008.1  -0.3  743  282           
03 15.07.18 010 (С) 3900 м  дымка  6/0 средняя, верхняя 
[Ac trans|Ci fib]
+13.9 +13.6 98 +22  1008  -0.1  743  282           
06 15.07.18 050 (СВ) 8000 м  дымка  9/9 1440 м 
[Sc]
+16.6 +15.4 93 +27  1008.4  0.6  744  279  +13.4         
09 15.07.18 040 (СВ) 12000 м  дымка  10/10 480 м 
[St]
+18.5 +15.7 84 +29  1008.5  -0.2  744  277           
12 15.07.18 050 (СВ) 12000 м    9/4 1000 м средняя, верхняя 
[Cu hum|Ac trans|Ci fib]
+22 +16.4 71 +33  1007.4  -0.9  743  274           
15 15.07.18 120 (ЮВ) 12000 м    9/9 960 м 
[Sc]
+20.1 +16 77 +31  1007.6  0.1  743  276           
18 15.07.18 040 (СВ) 10 км    9/6 1300 м средняя, верхняя 
[Sc|Ac trans|Ci fib]
+20.6 +15.5 73 +30  1007.9  0.3  744  275    +25.2       
21 15.07.18 020 (С) 10 км    9/0 средняя, верхняя 
[Ac trans|Ci fib]
+17.5 +15.5 88 +28  1008.1  744  278           
00 16.07.18 030 (СВ) 3700 м  в посл. час гроза{ливн. осадки}  10/10 540 м кучево-дожд. 
[Cb calv]
+17.2 +16.5 96 +30  1007.6  -0.5  743  278      0.1     
03 16.07.18 100 (В) 3600 м  дымка  8/6 1260 м средняя 
[Sc|Ac trans]
+16.8 +16.3 97 +29  1007.5  -0.1  743  278      0.2     
06 16.07.18 060 (СВ) 9000 м  дымка  10/10 300 м 
[St]
+18.8 +16.8 88 +32  1007.5  0.1  743  276  +16.1    0.2     
09 16.07.18 070 (В) 10 км    10/10 400 м 
[St]
+20.4 +16.6 79 +32  1007.4  743  275           
12 16.07.18 110 (В) 12000 м    10/6 700 м средняя, верхняя 
[Sc|Ac trans|Ci fib]
+23.5 +17.2 68 +37  1006.8  -0.4  743  272           
Время (UTC), дата Ветер
(°,м/с) 
Видим.   Явления Облачность Т
(°С)
Тd
(°С)
f(%) Тe
(°С)
Pmin
(гПа)
dP
(гПа)
Po
(мм)
O2
(г/м3)
Тmin Tmax R s Состояние
почвы

Для получения пояснительной информации подведите курсор к названию столбца.

ПОГОДА в Пинске - архив

Всё, что Вы хотите узнать о погоде в Пинске - удобно и подробно!

Выберите нужную дату (начиная с 1 января 2015* года) и нажмите кнопку "Найти".
Будут отображены архивные сводки погоды по пункту Пинск, начиная с указанной даты.


Отображать данные в формате CSV (для использования в таблицах Excel)


Внимание! Наш архив погоды предназначен исключительно для личного некоммерческого использования в познавательных целях. Если Вам необходимы официальные справки о состоянии погоды (для производственных, юридических, коммерческих и т.п. целей), обращайтесь в органы Росгидромета.

*Примечание: данная дата относится к архиву по метеостанциям СССР (Россия, СНГ, Балтия).
Архив по метеостанциям Зарубежной Европы и Азии (кроме Китая) хранится 10 дней, по другим регионам земного шара (Китай, Африка, Америка, Австралия, Океания) - 1 день.

Пинск - район местоположения метеостанции


Название, широта, долгота, высота метеостанции:
Пинск 52.1°ш. 26.1°д. 142 м над ур. моря [Беларусь]

Дополнительная информация

В oтличие oт бoльшинства пoгoдных сайтoв мы публикуем пoдрoбную метеoинфoрмацию в детальнoм прoфессиoнальнoм фoрмате.

Характеристики температуры и влажнoсти вoздуха измеряются на высoте 2 м в тени вдали oт зданий и деревьев.
Скoрoсть ветра измеряется на высoте 10 м (на урoвне рoста челoвека скoрoсть ветра ниже в 1.5-2 раза). Если метеoстанция нахoдится в гoрoде или в лесу, тo скoрoсть ветра занижена на 2-4 м/с пo сравнению с oткрытым местoм. Скoрoсть ветра над акватoриями крупных рек и oзёр, а также на вершинах хoлмoв на 2-5 м/с выше, чем в oбычных услoвиях.
Атмoсфернoе давление в разных тoчках местнoсти мoжет значительнo oтличаться oт давления на метеoстанции, в зависимoсти oт услoвий рельефа (при пoдъёме на 10 м давление пoнижается примернo на 1 мм рт.ст.).